User: anonymous   Login
Location: Unspecified
(0.0000°N, 0.0000°E)
Time: 18:35:49
(UTC+00:00)
Language:

Alouette 1 - Orbit

View from above orbital plane
View from above orbital plane
View from above satellite
View from above satellite

Ground track
Ground track

The orbit data is extracted from the following two-line orbital elements,

1 00424U 62049A   14303.09218825  .00000142  00000-0  15409-3 0  5543
2 00424 080.4646 137.3023 0023305 034.4379 087.0766 13.68965409599965
Epoch (UTC): 30 October 2014 02:12:45
Eccentricity: 0.0023305
inclination: 80.4646°
perigee height: 986 km
apogee height: 1020 km
right ascension of ascending node: 137.3023°
argument of perigee: 34.4379°
revolutions per day: 13.68965409
mean anomaly at epoch: 87.0766°
orbit number at epoch: 59996

The dashed part of the orbit path shows where the satellite is in the earth's shadow,  

DLR